EXPRESS-AM5

Last updated on Tue Sep 22 2026 00:03:13 GMT+0000 (Coordinated Universal Time)

1 39487U 13077A 26264.68532101 -.00000283 00000+0 00000+0 0 9997 2 39487 0.0279 249.7756 0001919 242.0868 255.4636 1.00273059 47325
UTC large
Height (km)
Speed (km/s)
/
Latitude / Longitude
Inclination (degrees)
Orbital Period (minutes)
Azimuth
Elevation
Range (km)
Doppler Factor

Next 0 passes for location: London (51.5072 / 0.1276)

No passes found over London.
EXPRESS-AM5